Hourly Data Report for October 11, 2019

All times are specified in Local Standard Time (LST). Add 1 hour to adjust for Daylight Saving Time where and when it is observed.

ABBOTSFORD A
BRITISH COLUMBIA
Current Station Operator: NAVCAN

49°01'31.000" N
122°21'36.000" W
59.10 m
1100031
71108
YXX

Download Data

Hourly Data (October 2019)
Hourly Data Report for October 11, 2019
TIME Temp Definition
°C
Dew Point Definition
°C
Rel Hum Definition
%
Wind Dir Definition
10's deg

Wind Spd Definition
km/h
Visibility Definition
km
Stn Press Definition
kPa
Hmdx Definition


Wind Chill Definition


Weather Definition


00:00 4.0 1.3 83 2 6 24.1 101.94     LegendNANA
01:00 4.0 1.3 82 36 10 24.1 101.92     Clear
02:00 4.2 1.3 81 4 12 24.1 101.84     LegendNANA
03:00 3.3 0.6 83 1 9 24.1 101.83     LegendNANA
04:00 3.9 0.8 81 2 10 24.1 101.79     Clear
05:00 2.8 0.5 85 1 11 24.1 101.76     LegendNANA
06:00 2.7 0.1 83 3 10 48.3 101.75     LegendNANA
07:00 2.9 0.8 86 34 10 48.3 101.73     Mostly Cloudy
08:00 5.9 2.1 77 2 9 48.3 101.71     LegendNANA
09:00 7.6 1.9 67 4 8 48.3 101.67     LegendNANA
10:00 10.3 2.2 57 2 4 48.3 101.61     Mainly Clear
11:00 12.2 2.6 52 1 5 48.3 101.56     LegendNANA
12:00 13.6 2.8 48 1 8 48.3 101.48     LegendNANA
13:00 14.3 2.2 44 35 4 48.3 101.41     Mainly Clear
14:00 15.6 2.2 40 2 4 48.3 101.29     LegendNANA
15:00 15.8 3.0 42 21 5 48.3 101.22     LegendNANA
16:00 15.8 2.2 40 34 3 48.3 101.18     Mainly Clear
17:00 14.4 3.2 47 33 7 48.3 101.12     LegendNANA
18:00 11.3 3.4 58 36 1 32.2 101.13     LegendNANA
19:00 8.1 3.8 74 1 5 24.1 101.11     Mainly Clear
20:00 7.4 3.6 77 1 7 24.1 101.11     LegendNANA
21:00 7.9 4.1 77 3 15 24.1 101.10     LegendNANA
22:00 7.5 4.0 79 1 8 24.1 101.08     Mainly Clear
23:00 6.2 3.2 81 1 8 24.1 101.07     LegendNANA

Notes on Data Quality.

Legend

  • E = Estimated
  • M = Missing
  • NA = Not Available
Date modified: